1519279200.78,55921,9.56,72674.8,-13.37,-39.41,-39.59,0,*65
1519279202.05,55922,9.63,72674.0,-13.35,-39.23,-39.59,0,*60
1519279203.3,55923,9.56,72668.8,-13.35,-39.41,-39.65,0,*6A
1519279204.59,55924,9.63,72672.0,-13.37,-39.41,-39.59,0,*60
1519279205.83,55925,9.63,72672.5,-13.35,-39.35,-39.53,0,*6A
1519279207.11,55926,9.56,72668.3,-13.33,-39.23,-39.41,0,*6B
1519279208.41,55927,9.56,72672.0,-13.33,-39.23,-39.59,0,*63
1519279209.67,55928,9.56,72670.3,-13.33,-39.35,-39.53,0,*61
1519279210.94,55929,9.56,72672.3,-13.33,-39.35,-39.59,0,*6A
1519279212.21,55930,9.56,72674.3,-13.29,-39.29,-39.65,0,*6B
1519279213.48,55931,9.56,72672.0,-13.33,-39.35,-39.59,0,*63
1519279214.75,55932,9.63,72672.3,-13.29,-39.35,-39.79,0,*69
1519279216.0,55933,9.63,72670.8,-13.29,-39.29,-39.47,0,*68
1519279217.29,55934,9.63,72674.8,-13.29,-39.29,-39.53,0,*6A
1519279218.57,55935,9.63,72674.3,-13.29,-39.29,-39.53,0,*6B
1519279219.81,55936,9.56,72670.0,-13.29,-39.35,-39.65,0,*60
1519279221.06,55937,9.56,72670.3,-13.29,-39.35,-39.65,0,*61
1519279222.34,55938,9.56,72670.8,-13.29,-39.29,-39.53,0,*66
1519279223.58,55939,9.63,72674.3,-13.29,-39.35,-39.65,0,*6F
1519279224.84,55940,9.56,72670.5,-13.29,-39.29,-39.47,0,*6C
1519279226.11,55941,9.63,72672.5,-13.29,-39.29,-39.65,0,*6D
1519279227.33,55942,9.56,72670.3,-13.27,-39.35,-39.65,0,*6D
1519279228.58,55943,9.63,72672.8,-13.27,-39.35,-39.71,0,*69
1519279229.85,55944,9.56,72670.5,-13.27,-39.29,-39.71,0,*63
1519279231.09,55945,9.63,72670.5,-13.25,-39.35,-39.65,0,*68
1519279232.36,55946,9.63,72674.5,-13.25,-39.29,-39.65,0,*66
1519279233.63,55947,9.63,72674.5,-13.25,-39.29,-39.65,0,*67
1519279234.87,55948,9.56,72670.0,-13.25,-39.35,-39.65,0,*65
1519279236.14,55949,9.56,72670.5,-13.25,-39.47,-39.71,0,*64
1519279237.39,55950,9.63,72668.8,-13.25,-39.47,-39.65,0,*69
1519279238.65,55951,9.63,72672.5,-13.25,-39.35,-39.71,0,*68
1519279239.92,55952,9.63,72672.8,-13.25,-39.47,-39.71,0,*6E
1519279241.17,55953,9.56,72668.5,-13.27,-39.47,-39.71,0,*6D
1519279242.44,55954,9.63,72670.0,-13.21,-39.41,-39.65,0,*6F
1519279243.69,55955,9.56,72670.0,-13.23,-39.23,-39.65,0,*68
1519279244.93,55956,9.56,72670.5,-13.23,-39.29,-39.65,0,*61
1519279246.18,55957,9.56,72670.3,-13.23,-39.41,-39.65,0,*6E
1519279247.43,55958,9.63,72672.0,-13.23,-39.41,-39.65,0,*61
1519279248.72,55959,9.56,72672.0,-13.21,-39.41,-39.79,0,*6F
1519279249.99,55960,9.63,72674.0,-13.23,-39.29,-39.79,0,*69
1519279251.26,55961,9.56,72668.3,-13.21,-39.41,-39.65,0,*69
1519279252.5,55962,9.63,72672.5,-13.23,-39.47,-39.79,0,*63
1519279253.76,55963,9.63,72672.0,-13.23,-39.59,-39.65,0,*60
1519279255.05,55964,9.56,72672.3,-13.21,-39.41,-39.79,0,*61
1519279256.32,55965,9.56,72668.0,-13.23,-39.29,-39.79,0,*6C
1519279257.57,55966,9.63,72672.8,-13.21,-39.47,-39.65,0,*68
1519279258.81,55967,9.63,72674.8,-13.23,-39.41,-39.65,0,*6D
1519279260.11,55968,9.63,72672.8,-13.21,-39.59,-39.79,0,*64
1519279261.41,55969,9.63,72670.5,-13.21,-39.41,-39.79,0,*6C
1519279262.68,55970,9.56,72670.3,-13.21,-39.59,-39.85,0,*6E
1519279263.95,55971,9.56,72670.0,-13.21,-39.47,-39.79,0,*63
1519279265.22,55972,9.56,72670.8,-13.19,-39.41,-39.71,0,*65
1519279266.49,55973,9.56,72670.0,-13.19,-39.41,-39.59,0,*6E
1519279267.73,55974,9.56,72668.0,-13.15,-39.53,-39.65,0,*69
1519279268.98,55975,9.56,72670.3,-13.15,-39.47,-39.71,0,*68
1519279270.25,55976,9.56,72672.5,-13.19,-39.53,-39.71,0,*62
1519279271.52,55977,9.56,72672.3,-13.19,-39.41,-39.79,0,*68
1519279272.76,55978,9.63,72672.0,-13.15,-39.35,-39.71,0,*60
1519279274.0,55979,9.63,72672.8,-13.15,-39.35,-39.71,0,*61
1519279275.25,55980,9.63,72672.5,-13.15,-39.47,-39.71,0,*62
1519279276.47,55981,9.56,72670.5,-13.15,-39.35,-39.65,0,*63
1519279277.71,55982,9.56,72672.3,-13.15,-39.47,-39.71,0,*60
1519279278.98,55983,9.63,72674.8,-13.19,-39.53,-39.71,0,*68
1519279280.2,55984,9.63,72672.0,-13.15,-39.47,-39.65,0,*63
1519279281.45,55985,9.63,72670.5,-13.15,-39.35,-39.71,0,*62
1519279282.69,55986,9.63,72672.8,-13.15,-39.47,-39.71,0,*64
1519279283.96,55987,9.63,72674.8,-13.15,-39.53,-39.71,0,*60
1519279285.2,55988,9.63,72668.0,-13.15,-39.53,-39.91,0,*61
1519279286.44,55989,9.56,72670.5,-13.15,-39.53,-39.65,0,*6B
1519279287.69,55990,9.56,72670.3,-13.15,-39.53,-39.65,0,*63
1519279288.91,55991,9.63,72672.0,-13.15,-39.47,-39.65,0,*67
1519279290.13,55992,9.63,72674.3,-13.15,-39.47,-39.65,0,*64
1519279291.43,55993,9.63,72672.5,-13.13,-39.53,-39.71,0,*63
1519279292.72,55994,9.56,72670.0,-13.13,-39.53,-39.71,0,*64
1519279293.96,55995,9.56,72670.0,-13.15,-39.47,-39.71,0,*66
1519279295.24,55996,9.56,72670.5,-13.13,-39.65,-39.79,0,*6B
1519279296.49,55997,9.63,72672.8,-13.13,-39.65,-39.91,0,*6C
1519279297.76,55998,9.63,72672.3,-13.13,-39.47,-39.71,0,*6D
1519279299.03,55999,9.63,72674.3,-13.13,-39.53,-39.65,0,*6C
1519279300.32,56000,9.63,72670.8,-13.13,-39.53,-39.71,0,*63
1519279301.59,56001,9.56,72670.5,-13.13,-39.53,-39.91,0,*6C
1519279302.88,56002,9.63,72670.5,-13.13,-39.53,-39.79,0,*69
1519279304.15,56003,9.56,72672.3,-13.13,-39.53,-39.91,0,*6E
1519279305.37,56004,9.56,72668.5,-13.11,-39.47,-39.85,0,*6B
1519279306.65,56005,9.63,72672.5,-13.11,-39.59,-39.71,0,*6E
1519279307.87,56006,9.63,72672.0,-13.11,-39.47,-39.85,0,*69
1519279309.09,56007,9.63,72670.5,-13.11,-39.65,-39.85,0,*68
1519279310.32,56008,9.63,72668.8,-13.11,-39.47,-39.65,0,*69
1519279311.54,56009,9.56,72670.8,-13.11,-39.47,-39.65,0,*68
1519279312.8,56010,9.63,72674.3,-13.11,-39.59,-39.65,0,*6F
1519279314.04,56011,9.63,72670.5,-13.07,-39.53,-39.65,0,*63
1519279315.28,56012,9.56,72670.3,-13.07,-39.53,-39.65,0,*60
1519279316.55,56013,9.63,72672.5,-13.07,-39.41,-39.79,0,*6F
1519279317.79,56014,9.63,72672.0,-13.07,-39.41,-39.65,0,*65
1519279319.01,56015,9.63,72672.8,-13.11,-39.47,-39.85,0,*6B
1519279320.27,56016,9.63,72672.0,-13.11,-39.59,-39.85,0,*67
1519279321.53,56017,9.63,72670.8,-13.07,-39.53,-39.79,0,*68
1519279322.77,56018,9.56,72670.3,-13.07,-39.35,-39.79,0,*67
1519279324.0,56019,9.63,72670.3,-13.07,-39.53,-39.85,0,*65
1519279325.24,56020,9.63,72672.0,-13.07,-39.53,-39.85,0,*6F
1519279326.48,56021,9.63,72672.3,-13.07,-39.59,-39.85,0,*64
1519279327.72,56022,9.56,72668.0,-13.07,-39.53,-39.85,0,*6D
1519279328.96,56023,9.63,72670.3,-13.03,-39.47,-39.71,0,*66
1519279330.21,56024,9.63,72668.5,-13.03,-39.35,-39.59,0,*6E
1519279331.47,56025,9.56,72668.8,-13.03,-39.53,-39.71,0,*65
1519279332.76,56026,9.63,72668.8,-13.01,-39.53,-39.71,0,*64
1519279334.0,56027,9.56,72668.8,-13.03,-39.35,-39.71,0,*67
1519279335.25,56028,9.56,72670.5,-13.03,-39.47,-39.79,0,*65
1519279336.52,56029,9.63,72672.0,-13.03,-39.53,-39.79,0,*61
1519279337.78,56030,9.63,72668.8,-13.03,-39.53,-39.59,0,*6B
1519279339.06,56031,9.63,72670.8,-13.01,-39.47,-39.79,0,*6F
1519279340.32,56032,9.63,72668.3,-13.01,-39.47,-39.71,0,*64
1519279341.57,56033,9.56,72670.3,-13.03,-39.47,-39.59,0,*6D
1519279342.86,56034,9.63,72670.3,-13.01,-39.53,-39.79,0,*6F
1519279344.13,56035,9.63,72668.8,-13.01,-39.35,-39.59,0,*6C
1519279345.42,56036,9.63,72672.5,-13.01,-39.53,-39.79,0,*6D
1519279346.69,56037,9.63,72672.8,-13.01,-39.47,-39.79,0,*69
1519279347.95,56038,9.63,72670.3,-13.01,-39.53,-39.91,0,*65
1519279349.22,56039,9.63,72670.8,-13.01,-39.47,-39.79,0,*67
1519279350.51,56040,9.63,72672.0,-13.01,-39.53,-39.79,0,*6C
1519279351.75,56041,9.63,72672.0,-13.03,-39.53,-39.91,0,*69
1519279353.05,56042,9.63,72668.5,-13.01,-39.53,-39.79,0,*6E
1519279354.35,56043,9.56,72670.3,-13.01,-39.59,-39.79,0,*65
1519279355.65,56044,9.63,72668.3,-13.01,-39.59,-39.79,0,*62
1519279356.91,56045,9.63,72670.5,-13.01,-39.53,-39.91,0,*6F
1519279358.2,56046,9.56,72668.0,-13.01,-39.53,-39.71,0,*62
1519279359.42,56047,9.63,72670.0,-12.97,-39.47,-39.85,0,*63
1519279360.71,56048,9.63,72670.0,-12.99,-39.53,-39.79,0,*64
1519279361.98,56049,9.63,72668.0,-12.99,-39.53,-39.91,0,*63
1519279363.22,56050,9.63,72670.8,-12.97,-39.29,-39.65,0,*63
1519279364.5,56051,9.56,72668.5,-12.99,-39.47,-39.79,0,*69
1519279365.71,56052,9.56,72668.8,-12.97,-39.47,-39.85,0,*67
1519279367.02,56053,9.63,72672.0,-12.99,-39.59,-39.79,0,*64
1519279368.32,56054,9.63,72670.5,-12.99,-39.59,-39.79,0,*63
1519279369.56,56055,9.56,72666.5,-12.97,-39.41,-39.85,0,*66
1519279370.78,56056,9.63,72670.3,-12.97,-39.47,-39.85,0,*63
1519279372.03,56057,9.63,72670.8,-12.97,-39.47,-39.71,0,*69
1519279373.3,56058,9.63,72670.8,-12.97,-39.53,-39.71,0,*63
1519279374.57,56059,9.63,72668.3,-12.99,-39.59,-39.91,0,*68
1519279375.85,56060,9.63,72670.8,-12.99,-39.59,-39.85,0,*67
1519279377.09,56061,9.56,72668.3,-12.97,-39.53,-39.85,0,*62
1519279378.36,56062,9.63,72672.3,-12.95,-39.53,-39.85,0,*63
1519279379.61,56063,9.63,72672.5,-12.95,-39.65,-39.85,0,*67
1519279380.88,56064,9.63,72668.3,-12.95,-39.53,-39.91,0,*60
1519279382.13,56065,9.63,72668.3,-12.95,-39.47,-39.85,0,*61
1519279383.38,56066,9.63,72670.0,-12.95,-39.65,-39.85,0,*62
1519279384.65,56067,9.63,72668.8,-12.91,-39.47,-39.79,0,*64
1519279385.9,56068,9.63,72672.0,-12.95,-39.65,-39.91,0,*69
1519279387.2,56069,9.56,72670.8,-12.95,-39.53,-39.71,0,*63
1519279388.48,56070,9.63,72668.5,-12.95,-39.47,-39.71,0,*6E
1519279389.75,56071,9.56,72670.8,-12.95,-39.53,-39.91,0,*64
1519279391.02,56072,9.63,72670.3,-12.95,-39.53,-39.85,0,*62
1519279392.27,56073,9.63,72670.3,-12.95,-39.65,-39.85,0,*66
1519279393.54,56074,9.63,72674.5,-12.95,-39.53,-40.03,0,*64
1519279394.81,56075,9.56,72668.3,-12.91,-39.59,-39.85,0,*6B
1519279396.08,56076,9.63,72672.3,-12.91,-39.41,-39.65,0,*6F
1519279397.36,56077,9.63,72674.8,-12.91,-39.47,-39.79,0,*65
1519279398.63,56078,9.56,72670.0,-12.91,-39.59,-39.85,0,*66
1519279399.87,56079,9.63,72670.0,-12.91,-39.47,-39.85,0,*68
1519279401.14,56080,9.63,72668.8,-12.95,-39.53,-39.85,0,*6F
1519279402.39,56081,9.63,72668.0,-12.95,-39.65,-39.91,0,*6E
1519279403.7,56082,9.63,72672.0,-12.91,-39.59,-39.79,0,*60
1519279404.99,56083,9.63,72670.0,-12.91,-39.41,-39.79,0,*68
1519279406.26,56084,9.63,72668.8,-12.91,-39.59,-39.85,0,*65
1519279407.54,56085,9.63,72670.8,-12.91,-39.47,-39.79,0,*68
1519279408.78,56086,9.63,72672.5,-12.91,-39.47,-39.85,0,*68
1519279410.05,56087,9.63,72668.8,-12.91,-39.65,-39.97,0,*6A
1519279411.29,56088,9.63,72670.0,-12.91,-39.47,-39.85,0,*66
1519279412.57,56089,9.63,72670.8,-12.91,-39.59,-39.85,0,*68
1519279413.84,56090,9.56,72666.0,-12.91,-39.59,-39.85,0,*60
1519279415.11,56091,9.63,72670.0,-12.91,-39.59,-39.85,0,*61
1519279416.38,56092,9.63,72668.3,-12.91,-39.47,-39.79,0,*6E
1519279417.63,56093,9.63,72672.5,-12.91,-39.65,-39.85,0,*6C
1519279418.9,56094,9.56,72668.8,-12.91,-39.59,-39.85,0,*64
1519279420.2,56095,9.63,72668.8,-12.91,-39.59,-39.79,0,*66
1519279421.45,56096,9.56,72670.3,-12.91,-39.65,-39.85,0,*69
1519279422.72,56097,9.56,72666.5,-12.91,-39.65,-39.97,0,*6B
1519279424.02,56098,9.63,72672.5,-12.91,-39.59,-39.97,0,*6B
1519279425.29,56099,9.63,72668.3,-12.91,-39.65,-39.97,0,*65
1519279426.53,56100,9.56,72666.3,-12.91,-39.65,-39.85,0,*67
1519279427.77,56101,9.63,72670.8,-12.91,-39.65,-40.03,0,*66
1519279429.04,56102,9.56,72670.0,-12.91,-39.65,-39.97,0,*66
1519279430.31,56103,9.63,72668.5,-12.91,-39.65,-39.97,0,*67
1519279431.58,56104,9.56,72668.0,-12.91,-39.65,-39.97,0,*60
1519279432.83,56105,9.63,72668.3,-12.91,-39.65,-40.03,0,*62
1519279434.07,56106,9.56,72668.0,-12.89,-39.71,-39.91,0,*68
1519279435.35,56107,9.63,72670.5,-12.89,-39.59,-39.97,0,*65
1519279436.62,56108,9.63,72670.0,-12.89,-39.59,-39.97,0,*6A
1519279437.89,56109,9.63,72668.8,-12.89,-39.71,-39.97,0,*61
1519279439.17,56110,9.56,72664.8,-12.89,-39.71,-40.09,0,*60
1519279440.44,56111,9.63,72668.8,-12.91,-39.79,-40.15,0,*6D
1519279441.72,56112,9.63,72674.3,-12.89,-39.59,-39.97,0,*61
1519279442.96,56113,9.63,72670.0,-12.89,-39.71,-39.91,0,*6C
1519279444.21,56114,9.63,72674.5,-12.91,-39.65,-39.85,0,*62
1519279445.46,56115,9.56,72668.0,-12.89,-39.59,-39.91,0,*60
1519279446.73,56116,9.63,72670.5,-12.89,-39.59,-39.97,0,*65
1519279448.0,56117,9.56,72670.8,-12.89,-39.59,-39.97,0,*64
1519279449.27,56118,9.63,72670.3,-12.89,-39.71,-39.97,0,*61
1519279450.55,56119,9.63,72666.5,-12.89,-39.59,-39.97,0,*6A
1519279451.82,56120,9.63,72668.3,-12.89,-39.59,-40.09,0,*69
1519279453.09,56121,9.56,72668.8,-12.89,-39.71,-39.97,0,*6B
1519279454.36,56122,9.56,72664.5,-12.89,-39.71,-39.97,0,*68
1519279455.63,56123,9.63,72672.3,-12.89,-39.71,-39.97,0,*69
1519279456.9,56124,9.63,72670.8,-12.89,-39.71,-39.97,0,*6E
1519279458.18,56125,9.56,72670.8,-12.89,-39.71,-40.09,0,*66
1519279459.43,56126,9.63,72668.0,-12.89,-39.59,-40.15,0,*62
1519279460.7,56127,9.63,72670.8,-12.89,-39.71,-39.97,0,*6D
1519279461.97,56128,9.63,72670.3,-12.89,-39.71,-40.09,0,*6B
1519279463.25,56129,9.63,72670.8,-12.89,-39.71,-40.09,0,*6A
1519279464.51,56130,9.63,72668.8,-12.89,-39.71,-39.97,0,*6B
1519279465.78,56131,9.56,72670.8,-12.89,-39.71,-39.97,0,*6A
1519279467.06,56132,9.63,72674.8,-12.89,-39.71,-40.09,0,*60
1519279468.33,56133,9.63,72668.3,-12.89,-39.71,-40.09,0,*61
1519279469.58,56134,9.63,72668.8,-12.89,-39.71,-40.15,0,*6B
1519279470.86,56135,9.63,72670.0,-12.91,-39.79,-40.15,0,*6B
1519279472.13,56136,9.56,72666.0,-12.89,-39.79,-39.97,0,*65
1519279473.43,56137,9.63,72668.8,-12.91,-39.79,-40.21,0,*6E
1519279474.7,56138,9.56,72670.3,-12.89,-39.71,-40.29,0,*68
1519279475.98,56139,9.63,72668.3,-12.89,-39.71,-40.09,0,*6B
1519279477.25,56140,9.63,72672.0,-12.89,-39.71,-40.09,0,*65
1519279478.53,56141,9.56,72666.5,-12.89,-39.79,-40.09,0,*6C
1519279479.8,56142,9.63,72668.8,-12.89,-39.71,-40.09,0,*67
1519279481.08,56143,9.56,72668.8,-12.89,-39.79,-39.97,0,*67
1519279482.35,56144,9.63,72668.3,-12.89,-39.79,-39.97,0,*60
1519279483.63,56145,9.56,72668.5,-12.89,-39.79,-40.09,0,*68
1519279484.93,56146,9.56,72668.3,-12.87,-39.79,-40.09,0,*65
1519279486.24,56147,9.63,72668.5,-12.87,-39.79,-40.09,0,*64
1519279487.54,56148,9.63,72670.5,-12.87,-39.71,-40.09,0,*63
1519279488.84,56149,9.63,72670.0,-12.87,-39.71,-40.09,0,*62
1519279490.11,56150,9.63,72670.0,-12.89,-39.71,-40.09,0,*64
1519279491.39,56151,9.63,72670.0,-12.89,-39.79,-40.09,0,*6D
1519279492.64,56152,9.63,72670.8,-12.89,-39.79,-40.15,0,*63
1519279493.92,56153,9.63,72668.3,-12.89,-39.79,-40.09,0,*6F
1519279495.19,56154,9.56,72664.5,-12.89,-39.79,-40.29,0,*6A
1519279496.41,56155,9.56,72668.0,-12.89,-39.91,-40.15,0,*62
1519279497.66,56156,9.63,72672.5,-12.91,-39.85,-40.15,0,*6D
1519279498.93,56157,9.56,72670.8,-12.89,-39.79,-39.97,0,*62
1519279500.18,56158,9.63,72674.3,-12.89,-39.79,-40.15,0,*69
1519279501.46,56159,9.63,72672.8,-12.89,-39.79,-39.97,0,*6C
1519279502.76,56160,9.63,72670.0,-12.87,-39.79,-40.09,0,*61
1519279504.06,56161,9.63,72670.3,-12.87,-39.79,-40.29,0,*62
1519279505.34,56162,9.63,72672.8,-12.87,-39.79,-40.15,0,*6E
1519279506.62,56163,9.63,72670.0,-12.85,-39.71,-40.09,0,*68
1519279507.89,56164,9.56,72668.5,-12.87,-39.79,-40.15,0,*68
1519279509.2,56165,9.63,72670.8,-12.87,-39.79,-40.09,0,*64
1519279510.5,56166,9.63,72670.5,-12.87,-39.79,-40.09,0,*67
1519279511.81,56167,9.63,72670.0,-12.87,-39.79,-40.09,0,*66
1519279513.11,56168,9.56,72670.3,-12.87,-39.79,-39.97,0,*60
1519279514.36,56169,9.56,72670.8,-12.85,-39.71,-39.91,0,*6D
1519279515.6,56170,9.63,72672.8,-12.85,-39.71,-40.03,0,*60
1519279516.91,56171,9.63,72670.5,-12.87,-39.79,-40.09,0,*61
1519279518.18,56172,9.63,72668.0,-12.87,-39.79,-40.15,0,*6F
1519279519.49,56173,9.56,72668.5,-12.87,-39.79,-40.09,0,*63
1519279520.79,56174,9.63,72670.5,-12.87,-39.79,-40.09,0,*64
1519279522.04,56175,9.63,72670.5,-12.87,-39.91,-40.15,0,*6E
1519279523.29,56176,9.56,72668.0,-12.85,-39.79,-40.03,0,*6E
1519279524.57,56177,9.63,72672.8,-12.87,-39.79,-40.15,0,*6A
1519279525.79,56178,9.63,72672.5,-12.89,-39.91,-40.15,0,*6D
1519279527.04,56179,9.63,72670.3,-12.89,-39.79,-40.15,0,*6A
1519279528.32,56180,9.56,72670.3,-12.87,-39.79,-40.15,0,*62
1519279529.57,56181,9.63,72668.5,-12.89,-39.79,-40.15,0,*6D
1519279530.82,56182,9.63,72668.8,-12.89,-39.79,-40.15,0,*6E
1519279532.12,56183,9.63,72670.8,-12.87,-39.79,-39.97,0,*65
1519279533.4,56184,9.63,72670.8,-12.87,-39.79,-40.15,0,*66
1519279534.68,56185,9.63,72672.3,-12.87,-39.79,-40.15,0,*67
1519279535.98,56186,9.63,72670.0,-12.87,-39.79,-40.29,0,*6B
1519279537.28,56187,9.63,72668.0,-12.87,-39.79,-40.09,0,*68
1519279538.53,56188,9.63,72672.3,-12.87,-39.91,-40.15,0,*6C
1519279539.81,56189,9.63,72672.0,-12.87,-39.79,-40.15,0,*6B
1519279541.09,56190,9.63,72670.5,-12.87,-39.79,-40.15,0,*63
1519279542.36,56191,9.56,72666.3,-12.87,-39.79,-40.15,0,*62
1519279543.64,56192,9.56,72668.5,-12.87,-39.79,-40.15,0,*61
1519279544.89,56193,9.63,72670.0,-12.89,-39.79,-40.15,0,*6E
1519279546.17,56194,9.63,72674.8,-12.89,-39.79,-40.29,0,*66
1519279547.42,56195,9.63,72672.3,-12.87,-39.91,-40.15,0,*60
1519279548.69,56196,9.63,72672.3,-12.87,-39.91,-40.29,0,*6C
1519279549.99,56197,9.63,72672.0,-12.87,-39.79,-40.09,0,*69
1519279551.27,56198,9.63,72670.0,-12.87,-39.79,-40.15,0,*6B
1519279552.55,56199,9.63,72670.5,-12.87,-39.79,-40.15,0,*6A
1519279553.8,56200,9.63,72668.0,-12.87,-39.91,-40.15,0,*6F
1519279555.07,56201,9.56,72670.8,-12.87,-39.91,-40.29,0,*61
1519279556.34,56202,9.56,72670.5,-12.85,-39.71,-40.21,0,*66
1519279557.62,56203,9.63,72670.0,-12.87,-39.91,-40.29,0,*63
1519279558.89,56204,9.63,72674.5,-12.87,-39.91,-40.29,0,*64
1519279560.14,56205,9.56,72668.5,-12.87,-39.91,-40.15,0,*6A
1519279561.41,56206,9.63,72668.8,-12.87,-39.79,-40.15,0,*6F
1519279562.66,56207,9.63,72670.3,-12.87,-39.91,-40.15,0,*68
1519279563.88,56208,9.63,72670.3,-12.89,-39.91,-40.15,0,*69
1519279565.16,56209,9.63,72672.3,-12.87,-39.79,-40.15,0,*60
1519279566.45,56210,9.63,72672.3,-12.87,-39.97,-40.29,0,*67
1519279567.73,56211,9.63,72672.3,-12.87,-39.79,-40.15,0,*69
1519279569.0,56212,9.63,72668.3,-12.87,-39.91,-40.29,0,*63
1519279570.28,56213,9.63,72672.0,-12.87,-39.91,-40.09,0,*60
1519279571.58,56214,9.63,72668.8,-12.87,-39.79,-40.29,0,*63
1519279572.88,56215,9.56,72670.0,-12.87,-39.79,-40.29,0,*62
1519279574.16,56216,9.56,72670.3,-12.87,-39.91,-40.09,0,*65
1519279575.46,56217,9.63,72670.5,-12.87,-39.79,-40.09,0,*62
1519279576.74,56218,9.63,72672.3,-12.87,-39.79,-40.15,0,*60
1519279578.02,56219,9.56,72668.0,-12.87,-39.91,-40.09,0,*6A
1519279579.27,56220,9.63,72670.0,-12.87,-39.91,-40.15,0,*6D
1519279580.51,56221,9.63,72668.5,-12.87,-39.91,-40.15,0,*6C
1519279581.79,56222,9.63,72674.5,-12.87,-39.79,-40.15,0,*69
1519279583.07,56223,9.63,72672.3,-12.87,-39.91,-40.09,0,*63
1519279584.37,56224,9.63,72672.3,-12.87,-39.79,-40.29,0,*60
1519279585.65,56225,9.63,72670.3,-12.87,-39.91,-40.09,0,*65
1519279586.95,56226,9.63,72676.0,-12.87,-39.79,-40.09,0,*60
1519279588.22,56227,9.63,72672.5,-12.89,-39.79,-40.29,0,*6D
1519279589.53,56228,9.63,72672.0,-12.87,-39.79,-40.29,0,*6C
1519279590.8,56229,9.63,72672.0,-12.87,-39.91,-40.09,0,*69
1519279592.1,56230,9.63,72670.3,-12.87,-39.79,-40.29,0,*65
1519279593.38,56231,9.63,72670.8,-12.87,-39.91,-40.09,0,*60
1519279594.62,56232,9.63,72672.8,-12.89,-39.91,-40.29,0,*6F
1519279595.87,56233,9.63,72672.8,-12.89,-39.91,-40.29,0,*6E
1519279597.15,56234,9.63,72674.0,-12.87,-39.79,-40.15,0,*6E
1519279598.4,56235,9.63,72674.3,-12.87,-39.91,-40.15,0,*69
1519279599.62,56236,9.56,72668.5,-12.89,-39.91,-40.15,0,*64
1519279600.87,56237,9.56,72670.3,-12.87,-39.91,-40.15,0,*6B
1519279602.17,56238,9.63,72674.3,-12.87,-39.79,-40.09,0,*6F
1519279603.45,56239,9.63,72674.0,-12.89,-39.79,-40.09,0,*60
1519279604.72,56240,9.63,72672.5,-12.89,-39.79,-39.97,0,*67
1519279605.94,56241,9.63,72672.8,-12.89,-39.91,-40.15,0,*64
1519279607.19,56242,9.63,72674.5,-12.89,-39.91,-40.29,0,*68
1519279608.41,56243,9.63,72670.8,-12.89,-39.91,-40.15,0,*66
1519279609.66,56244,9.63,72674.3,-12.89,-39.79,-40.15,0,*67
1519279610.88,56245,9.63,72672.8,-12.89,-39.91,-40.15,0,*60
1519279612.11,56246,9.63,72670.8,-12.89,-39.91,-40.15,0,*63
1519279613.35,56247,9.63,72672.0,-12.91,-39.85,-40.15,0,*6E
1519279614.63,56248,9.56,72670.5,-12.89,-39.79,-40.09,0,*66
1519279615.93,56249,9.63,72672.3,-12.87,-39.79,-40.09,0,*69
1519279617.24,56250,9.63,72672.0,-12.87,-39.79,-40.09,0,*61
1519279618.52,56251,9.63,72670.3,-12.89,-39.79,-40.09,0,*6E
1519279619.76,56252,9.56,72670.3,-12.89,-39.91,-40.29,0,*69
1519279621.04,56253,9.63,72672.5,-12.89,-39.79,-40.09,0,*6C
1519279622.29,56254,9.63,72670.0,-12.89,-39.79,-40.15,0,*66
1519279623.53,56255,9.63,72670.8,-12.89,-39.91,-40.29,0,*6E
1519279624.81,56256,9.63,72668.8,-12.89,-39.79,-40.09,0,*69
1519279626.03,56257,9.63,72672.5,-12.89,-39.91,-40.15,0,*63
1519279627.31,56258,9.63,72674.0,-12.89,-39.79,-40.09,0,*67
1519279628.59,56259,9.63,72672.0,-12.89,-39.79,-40.09,0,*66
1519279629.86,56260,9.63,72672.0,-12.89,-39.79,-39.97,0,*65
1519279631.14,56261,9.63,72672.0,-12.89,-39.79,-40.09,0,*6D
1519279632.39,56262,9.63,72674.0,-12.89,-39.91,-40.09,0,*68
1519279633.67,56263,9.63,72672.0,-12.89,-39.79,-40.09,0,*6F
1519279634.89,56264,9.63,72672.0,-12.89,-39.91,-40.15,0,*63
1519279636.14,56265,9.63,72672.3,-12.89,-39.79,-40.15,0,*64
1519279637.39,56266,9.63,72670.0,-12.89,-39.79,-40.15,0,*67
1519279638.67,56267,9.56,72670.3,-12.89,-39.79,-40.09,0,*6B
1519279639.92,56268,9.63,72672.5,-12.89,-39.79,-40.15,0,*69
1519279641.15,56269,9.63,72672.3,-12.89,-39.97,-40.15,0,*68
1519279642.41,56270,9.63,72672.5,-12.89,-39.79,-40.15,0,*60
1519279643.66,56271,9.63,72674.5,-12.89,-39.79,-40.15,0,*61
1519279644.88,56272,9.63,72670.5,-12.89,-39.91,-40.15,0,*64
1519279646.13,56273,9.63,72674.3,-12.89,-39.91,-40.09,0,*68
1519279647.4,56274,9.63,72674.0,-12.89,-39.79,-39.97,0,*60
1519279648.64,56275,9.63,72676.0,-12.89,-39.91,-39.97,0,*67
1519279649.92,56276,9.56,72668.8,-12.89,-39.79,-40.09,0,*6B
1519279651.16,56277,9.63,72676.3,-12.91,-39.85,-40.03,0,*6A
1519279652.44,56278,9.63,72672.3,-12.89,-39.79,-40.09,0,*65
1519279653.72,56279,9.63,72672.0,-12.89,-39.79,-40.09,0,*64
1519279654.99,56280,9.63,72674.3,-12.89,-39.79,-39.97,0,*6B
1519279656.27,56281,9.63,72674.8,-12.89,-39.79,-40.09,0,*63
1519279657.52,56282,9.63,72674.5,-12.89,-39.91,-40.09,0,*66
1519279658.76,56283,9.63,72674.8,-12.91,-39.85,-40.03,0,*61
1519279660.01,56284,9.63,72674.3,-12.89,-39.91,-40.09,0,*60
1519279661.28,56285,9.63,72674.8,-12.89,-39.71,-40.09,0,*6F
1519279662.55,56286,9.63,72674.8,-12.89,-39.71,-39.97,0,*65
1519279663.83,56287,9.63,72674.3,-12.89,-39.79,-39.97,0,*6C
1519279665.1,56288,9.63,72672.8,-12.89,-39.79,-39.97,0,*63
1519279666.34,56289,9.63,72674.3,-12.91,-39.85,-40.03,0,*6B
1519279667.59,56290,9.63,72674.0,-12.89,-39.91,-39.97,0,*6C
1519279668.85,56291,9.63,72674.5,-12.91,-39.97,-40.15,0,*66
1519279670.13,56292,9.63,72672.3,-12.89,-39.79,-39.97,0,*68
1519279671.4,56293,9.63,72672.0,-12.89,-39.79,-39.97,0,*69
1519279672.67,56294,9.63,72674.0,-12.89,-39.79,-39.97,0,*6E
1519279673.95,56295,9.63,72676.5,-12.89,-39.79,-39.97,0,*6F
1519279675.22,56296,9.63,72672.8,-12.89,-39.79,-39.97,0,*6C
1519279676.5,56297,9.63,72676.0,-12.89,-39.79,-40.09,0,*64
1519279677.74,56298,9.63,72674.8,-12.89,-39.91,-39.97,0,*64
1519279679.02,56299,9.63,72676.5,-12.89,-39.79,-40.09,0,*6A
1519279680.29,56300,9.63,72672.8,-12.89,-39.79,-39.97,0,*62
1519279681.54,56301,9.63,72672.0,-12.89,-39.91,-40.09,0,*6C
1519279682.82,56302,9.63,72674.5,-12.89,-39.79,-40.09,0,*69
1519279684.09,56303,9.63,72674.8,-12.89,-39.79,-39.97,0,*61
1519279685.37,56304,9.63,72678.0,-12.89,-39.79,-40.09,0,*6F
1519279686.61,56305,9.63,72672.5,-12.91,-39.85,-40.03,0,*6E
1519279687.89,56306,9.63,72672.3,-12.89,-39.79,-39.97,0,*64
1519279689.16,56307,9.63,72672.0,-12.89,-39.79,-39.97,0,*65
1519279690.44,56308,9.63,72672.0,-12.89,-39.79,-40.09,0,*63
1519279691.72,56309,9.63,72678.5,-12.89,-39.79,-40.09,0,*62
1519279692.94,56310,9.63,72674.0,-12.89,-39.85,-40.15,0,*64
1519279694.21,56311,9.63,72670.5,-12.91,-39.85,-39.97,0,*68
1519279695.45,56312,9.63,72674.5,-12.91,-39.85,-40.03,0,*68
1519279696.72,56313,9.63,72672.0,-12.89,-39.79,-39.97,0,*60
1519279697.99,56314,9.63,72674.8,-12.89,-39.71,-39.97,0,*6F
1519279699.27,56315,9.63,72672.8,-12.91,-39.79,-40.15,0,*6B
1519279700.54,56316,9.63,72674.5,-12.89,-39.79,-39.97,0,*65
1519279701.81,56317,9.63,72674.8,-12.89,-39.71,-39.97,0,*6C
1519279703.09,56318,9.63,72672.5,-12.89,-39.71,-40.09,0,*6A
1519279704.36,56319,9.63,72670.5,-12.89,-39.79,-39.97,0,*6A
1519279705.61,56320,9.63,72676.5,-12.89,-39.71,-39.91,0,*6E